EW4858 Weather Reports


Display with metric or nautical units.
time (UTC)temp
F
wind
direction
speed
MPH
gust
MPH
rain 1hr
in
rain 24hr
in
rain mn
in
humidity
%
barometer
mb
20260902021540 76 71 1.0 8.0 0.00 0.00 0.00 59 1009.3
20260902020024 77 92 4.0 9.0 0.00 0.00 0.00 56 1009.3
20260902014532 78 118 4.0 9.0 0.00 0.00 0.00 55 1009.4
20260902013022 79 90 4.0 9.0 0.00 0.00 0.00 54 1009.3
20260902011522 79 107 5.0 10.0 0.00 0.00 0.00 54 1009.3
20260902010026 80 94 4.0 10.0 0.00 0.00 0.00 51 1009.3
20260902004521 82 82 4.0 8.0 0.00 0.00 0.00 48 1009.3
20260902003021 82 23 7.0 9.0 0.00 0.00 0.00 46 1009.3
20260902001521 83 50 4.0 9.0 0.00 0.00 0.00 47 1009.3
20260902000020 83 66 2.0 11.0 0.00 0.00 0.00 44 1009.3
20260901234519 84 22 5.0 11.0 0.00 0.00 0.00 44 1009.4
20260901233037 84 59 6.0 12.0 0.00 0.00 0.00 43 1009.4
20260901231518 85 15 4.0 10.0 0.00 0.00 0.00 43 1009.3
20260901230030 85 49 6.0 11.0 0.00 0.00 0.00 44 1009.4
20260901224516 86 20 8.0 16.0 0.00 0.00 0.00 44 1009.4
20260901223016 86 45 6.0 15.0 0.00 0.00 0.00 44 1009.4
20260901221515 86 22 7.0 12.0 0.00 0.00 0.00 45 1009.4
20260901220014 87 53 7.0 14.0 0.00 0.00 0.00 45 1009.5
20260901214526 86 41 7.0 14.0 0.00 0.00 0.00 46 1009.6
20260901213014 87 57 6.0 14.0 0.00 0.00 0.00 45 1009.7
20260901211512 87 57 7.0 11.0 0.00 0.00 0.00 45 1009.7
20260901210012 87 10 7.0 13.0 0.00 0.00 0.00 47 1009.8
20260901204513 87 61 7.0 12.0 0.00 0.00 0.00 44 1009.8
20260901203010 87 61 1.0 9.0 0.00 0.00 0.00 41 1009.8
20260901201507 87 15 1.0 8.0 0.00 0.00 0.00 36 1009.8
20260901200007 87 51 3.0 9.0 0.00 0.00 0.00 36 1010.1
20260901194502 86 99 5.0 9.0 0.00 0.00 0.00 38 1010.2
20260901193104 86 25 3.0 9.0 0.00 0.00 0.00 37 1010.4
20260901191612 84 48 2.0 7.0 0.00 0.00 0.00 42 1010.6
20260901190056 84 81 2.0 7.0 0.00 0.00 0.00 47 1010.6
20260901184552 82 90 2.0 7.0 0.00 0.00 0.00 52 1010.8
20260901183057 82 129 1.0 4.0 0.00 0.00 0.00 56 1011.0
20260901181546 80 107 0.0 4.0 0.00 0.00 0.00 57 1011.1
20260901180043 79 62 1.0 5.0 0.00 0.00 0.00 59 1011.1
20260901174540 78 100 1.0 6.0 0.00 0.00 0.00 63 1011.3
20260901173042 76 21 0.0 5.0 0.00 0.00 0.00 67 1011.4
20260901171539 75 35 0.0 5.0 0.00 0.00 0.00 69 1011.4
20260901170030 74 80 3.0 7.0 0.00 0.00 0.00 71 1011.3
20260901164529 73 40 0.0 5.0 0.00 0.00 0.00 73 1011.3
20260901163024 72 101 3.0 6.0 0.00 0.00 0.00 76 1011.2
20260901161521 71 74 3.0 7.0 0.00 0.00 0.00 78 1011.1
20260901160018 70 114 2.0 7.0 0.00 0.00 0.00 79 1011.0
20260901154525 69 278 0.0 4.0 0.00 0.00 0.00 80 1011.0
20260901153017 69 256 0.0 0.0 0.00 0.00 0.00 81 1010.9
20260901151513 68 256 0.0 0.0 0.00 0.00 0.00 82 1010.8
20260901150021 66 256 0.0 0.0 0.00 0.00 0.00 83 1010.8
20260901144507 66 256 0.0 0.0 0.00 0.00 0.00 83 1010.7
20260901143008 65 256 0.0 0.0 0.00 0.00 0.00 82 1010.6
20260901141507 64 256 0.0 0.0 0.00 0.00 0.00 84 1010.5
20260901140003 63 256 0.0 3.0 0.00 0.00 0.00 85 1010.5
20260901134502 62 256 0.0 0.0 0.00 0.00 0.00 85 1010.4
20260901133105 62 256 0.0 1.0 0.00 0.00 0.00 84 1010.2
20260901131557 63 256 0.0 4.0 0.00 0.00 0.00 85 1010.1
20260901130057 63 256 0.0 4.0 0.00 0.00 0.00 86 1010.0
20260901124556 63 256 2.0 5.0 0.00 0.00 0.00 85 1010.0
20260901123054 64 254 3.0 6.0 0.00 0.00 0.00 85 1010.1
20260901121553 64 248 2.0 5.0 0.00 0.00 0.00 85 1010.0
20260901120052 64 246 3.0 6.0 0.00 0.00 0.00 86 1009.9
20260901114549 65 152 0.0 0.0 0.00 0.00 0.00 85 1009.9
20260901113048 65 152 0.0 0.0 0.00 0.00 0.00 86 1009.9
20260901111547 65 152 0.0 0.0 0.00 0.00 0.00 85 1009.7
20260901110045 66 152 0.0 0.0 0.00 0.00 0.00 84 1009.7
20260901104546 67 152 0.0 0.0 0.00 0.00 0.00 86 1009.8
20260901103047 66 152 0.0 0.0 0.00 0.00 0.00 84 1009.8
20260901101606 65 152 0.0 0.0 0.00 0.00 0.00 83 1010.0
20260901100043 65 147 0.0 0.0 0.00 0.00 0.00 84 1010.0
20260901094542 65 146 0.0 0.0 0.00 0.00 0.00 84 1010.0
20260901093040 66 146 0.0 0.0 0.00 0.00 0.00 84 1010.0
20260901091537 67 128 0.0 0.0 0.00 0.00 0.00 85 1009.9
20260901090036 67 119 0.0 0.0 0.00 0.00 0.00 86 1009.9
20260901084535 67 119 0.0 0.0 0.00 0.00 0.00 86 1009.9
20260901083034 68 115 0.0 0.0 0.00 0.00 0.00 85 1010.0
20260901081533 68 111 0.0 3.0 0.00 0.00 0.00 85 1010.0
20260901080033 68 101 0.0 0.0 0.00 0.00 0.00 85 1010.1
20260901074542 68 101 0.0 3.0 0.00 0.00 0.00 85 1010.1
20260901073037 68 102 0.0 0.0 0.00 0.00 0.00 84 1010.0
20260901071528 68 103 0.0 0.0 0.00 0.00 0.00 84 1010.0
20260901070028 69 117 0.0 0.0 0.00 0.00 0.00 84 1010.2
20260901064529 69 117 0.0 0.0 0.00 0.00 0.00 84 1010.0
20260901063025 69 116 0.0 4.0 0.00 0.00 0.00 84 1010.1
20260901061525 69 120 0.0 3.0 0.00 0.00 0.00 83 1010.1
20260901060023 69 105 0.0 6.0 0.00 0.00 0.00 83 1010.1
20260901054522 70 105 2.0 5.0 0.00 0.00 0.00 81 1009.9
20260901053022 70 93 0.0 4.0 0.00 0.00 0.00 80 1009.9
20260901051528 71 86 0.0 3.0 0.00 0.00 0.00 79 1009.8
20260901050017 71 84 1.0 2.0 0.00 0.00 0.00 79 1009.6
20260901044515 71 84 0.0 0.0 0.00 0.00 0.00 78 1009.6
20260901043008 71 99 0.0 0.0 0.00 0.00 0.00 77 1009.4
20260901041509 72 91 0.0 4.0 0.00 0.00 0.00 75 1009.6
20260901040006 73 98 1.0 4.0 0.00 0.00 0.00 73 1009.6
20260901034505 73 78 0.0 3.0 0.00 0.00 0.00 72 1009.3
20260901033008 74 90 2.0 5.0 0.00 0.00 0.00 71 1009.1
20260901031504 74 117 1.0 6.0 0.00 0.00 0.00 69 1009.0
20260901030004 76 109 1.0 6.0 0.00 0.00 0.00 64 1008.8
20260901024504 77 53 0.0 4.0 0.00 0.00 0.00 63 1008.5
20260901023004 78 83 1.0 7.0 0.00 0.00 0.00 61 1008.3